Weather reports worldwide

Advertisment
Rheinstetten, Germany (10731): temperature & dewpoint: 10.09.2019 05:00:00 - 16.09.2019 05:00:00 (CEST)Rheinstetten, Germany (10731): temperature 5cm & temperature -5cm: 10.09.2019 05:00:00 - 16.09.2019 05:00:00 (CEST)Rheinstetten, Germany (10731): temperature -20cm & temperature -100cm: 10.09.2019 05:00:00 - 16.09.2019 05:00:00 (CEST)Rheinstetten, Germany (10731): wind speed & gusts: 10.09.2019 05:00:00 - 16.09.2019 05:00:00 (CEST)Rheinstetten, Germany (10731): wind direction: 10.09.2019 05:00:00 - 16.09.2019 05:00:00 (CEST)Rheinstetten, Germany (10731): reduced air pressure: 10.09.2019 05:00:00 - 16.09.2019 05:00:00 (CEST)Rheinstetten, Germany (10731): visibility: 10.09.2019 05:00:00 - 16.09.2019 05:00:00 (CEST)Rheinstetten, Germany (10731): sunshine duration: 10.09.2019 05:00:00 - 16.09.2019 05:00:00 (CEST)Rheinstetten, Germany (10731): precipitation: 10.09.2019 05:00:00 - 16.09.2019 05:00:00 (CEST)
Date & Time tt [°C] td [°C] tt 5cm [°C] tt -5cm [°C] tt -20cm [°C] tt -100cm [°C] ff [km/h] ff [kn] fx [km/h] fx [kn] dd ppp [hPa] vv [km] sd [min] rr [mm]
16.09.2019 05:00:00 11,1 10,6 10,1 15,4 19,6 19,7 0 0 5 3 N 1021,4 23 0 0,0
16.09.2019 04:00:00 11,8 11,1 10,4 15,9 20,0 19,7 3 2 7 4 E 1021,5 35 0 0,0
16.09.2019 03:00:00 12,1 11,5 10,5 16,5 20,5 19,7 3 2 6 3 E 1021,6 30 0 0,0
16.09.2019 02:00:00 12,9 12,0 11,5 17,2 21,0 19,7 0 0 15 8 N 1021,5 29 0 0,0
16.09.2019 01:00:00 13,5 12,8 12,2 17,9 21,6 19,7 4 2 6 4 S 1021,7 36 0 0,0
16.09.2019 00:00:00 14,5 13,2 12,7 18,7 22,2 19,7 6 3 9 5 NNE 1021,8 53 0 0,0
15.09.2019 23:00:00 14,9 13,3 12,2 19,7 22,8 19,7 2 1 8 4 S 1021,6 55 0 0,0
15.09.2019 22:00:00 16,5 14,2 14,3 21,0 23,4 19,7 3 2 5 3 E 1021,6 54 0 0,0
15.09.2019 21:00:00 18,8 15,1 15,6 22,7 24,0 19,7 4 2 10 6 SSW 1021,2 40 0 0,0
15.09.2019 20:00:00 23,5 15,2 20,7 24,8 24,4 19,7 9 5 12 7 W 1020,5 59 25 0,0
15.09.2019 19:00:00 26,3 14,4 25,7 27,3 24,5 19,7 9 5 16 9 SSW 1020,2 67 60 0,0
15.09.2019 18:00:00 27,1 13,7 28,3 29,3 24,3 19,7 11 6 19 10 SSW 1020,6 52 60 0,0
15.09.2019 17:00:00 27,1 14,2 28,9 30,5 23,8 19,7 12 7 22 12 SW 1021,1 63 60 0,0
15.09.2019 16:00:00 26,4 14,0 28,4 31,1 23,0 19,7 10 6 27 14 SW 1021,9 75 60 0,0
15.09.2019 15:00:00 25,9 14,4 29,0 30,8 21,9 19,7 13 7 21 12 WSW 1022,6 75 60 0,0
15.09.2019 14:00:00 24,6 14,7 28,5 29,6 20,8 19,6 8 5 15 8 SW 1023,5 59 60 0,0
15.09.2019 13:00:00 23,1 14,3 27,4 27,2 19,6 19,6 8 4 19 10 WSW 1024,3 39 60 0,0
15.09.2019 12:00:00 21,5 14,7 25,1 24,3 18,7 19,6 9 5 17 9 WSW 1024,9 52 60 0,0
15.09.2019 11:00:00 19,1 13,7 21,8 21,2 18,0 19,6 7 4 13 7 WSW 1025,3 32 60 0,0
15.09.2019 10:00:00 17,2 14,0 19,7 18,2 17,6 19,6 6 3 11 6 SSW 1025,3 27 60 0,0
15.09.2019 09:00:00 14,4 11,9 16,1 15,6 17,6 19,6 3 2 5 3 W 1025,6 25 60 0,0
15.09.2019 08:00:00 10,9 10,2 10,9 14,0 17,9 19,6 3 2 6 3 S 1025,7 26 23 0,0
15.09.2019 07:00:00 10,3 9,7 9,3 14,2 18,3 19,6 4 2 5 3 SE 1025,5 24 0 0,0
15.09.2019 06:00:00 11,0 10,4 9,8 14,7 18,7 19,5 0 0 4 2 N 1025,4 28 0 0,0
15.09.2019 05:00:00 12,0 11,3 10,4 15,3 19,1 19,5 3 2 5 3 SW 1025,8 25 0 0,0
15.09.2019 04:00:00 13,1 11,7 11,4 15,9 19,4 19,5 5 3 7 4 NE 1025,8 35 0 0,0
15.09.2019 03:00:00 14,6 12,5 13,0 16,4 19,8 19,5 7 4 12 6 NE 1025,9 38 0 0,0
15.09.2019 02:00:00 15,6 12,9 13,7 17,0 20,3 19,5 7 4 13 7 N 1026,1 48 0 0,0
15.09.2019 01:00:00 14,9 12,9 12,6 17,5 20,7 19,5 6 4 10 6 NNE 1026,4 47 0 0,0
15.09.2019 00:00:00 16,7 13,7 14,4 18,3 21,2 19,5 9 5 13 7 NNE 1026,9 36 0 0,0
14.09.2019 23:00:00 17,1 13,9 14,6 19,2 21,8 19,5 6 4 10 5 N 1027,4 40 0 0,0
14.09.2019 22:00:00 17,4 14,1 15,0 20,2 22,3 19,5 6 3 10 5 NNE 1027,6 36 0 0,0
14.09.2019 21:00:00 19,1 14,3 16,5 21,6 22,8 19,5 8 5 14 8 NNE 1027,5 55 0 0,0
14.09.2019 20:00:00 21,8 13,9 19,7 23,4 23,2 19,5 13 7 19 10 NNE 1027,2 67 24 0,0
14.09.2019 19:00:00 23,6 13,6 23,8 25,7 23,3 19,5 13 7 20 11 N 1027,1 55 60 0,0
14.09.2019 18:00:00 25,0 13,1 26,4 27,7 23,0 19,5 11 6 19 10 E 1027,2 61 60 0,0
14.09.2019 17:00:00 25,0 13,3 27,6 28,8 22,4 19,5 11 6 24 13 ENE 1027,5 49 60 0,0
14.09.2019 16:00:00 24,5 13,0 28,3 28,8 21,6 19,5 16 9 31 17 NE 1028,2 45 60 0,0
14.09.2019 15:00:00 24,2 13,3 29,1 28,2 20,7 19,5 18 10 27 14 N 1028,9 75 60 0,0
14.09.2019 14:00:00 23,1 13,7 27,7 26,6 19,7 19,5 18 10 29 16 NNE 1029,6 58 60 0,0
14.09.2019 13:00:00 21,8 14,1 26,2 24,4 18,8 19,5 16 8 25 14 NE 1030,2 50 58 0,0
14.09.2019 12:00:00 20,5 14,0 24,4 22,1 18,1 19,5 14 8 25 14 NNE 1030,9 55 42 0,0
14.09.2019 11:00:00 18,0 13,5 20,6 18,9 17,6 19,5 16 9 28 15 ENE 1031,4 59 10 0,0
14.09.2019 10:00:00 15,9 13,0 16,9 16,7 17,5 19,5 17 9 26 14 NNE 1032,0 36 4 0,0
14.09.2019 09:00:00 14,8 12,8 15,3 15,6 17,6 19,5 14 7 19 10 NNE 1032,1 38 3 0,0
14.09.2019 08:00:00 13,9 12,6 13,4 14,8 17,8 19,5 12 7 18 10 NE 1032,1 23 0 0,0
14.09.2019 07:00:00 14,2 13,0 13,2 15,0 18,1 19,5 13 7 17 9 NE 1031,3 21 0 0,0
14.09.2019 06:00:00 14,8 13,5 13,7 15,5 18,3 19,5 11 6 21 11 NE 1031,3 21 0 0,0
14.09.2019 05:00:00 15,7 14,0 14,8 16,0 18,5 19,4 16 9 21 11 NNE 1031,5 33 0 0,0
14.09.2019 04:00:00 15,7 13,8 14,4 16,1 18,8 19,4 13 7 18 10 NNE 1031,7 38 0 0,0
14.09.2019 03:00:00 16,0 14,2 15,2 16,3 19,1 19,4 8 4 16 8 NE 1032,2 50 0 0,0
14.09.2019 02:00:00 16,1 13,8 14,5 16,6 19,5 19,4 10 6 13 7 NNE 1031,8 62 0 0,0
14.09.2019 01:00:00 15,3 13,8 13,1 17,1 19,8 19,4 5 3 9 5 NNE 1031,9 45 0 0,0
14.09.2019 00:00:00 15,9 14,0 14,1 17,9 20,2 19,4 6 3 8 4 NE 1031,9 47 0 0,0
13.09.2019 23:00:00 15,4 13,9 15,0 18,3 20,6 19,4 4 2 9 5 E 1032,0 54 0 0,0
13.09.2019 22:00:00 16,3 14,3 15,3 19,1 21,0 19,4 4 2 6 3 NNE 1031,7 59 0 0,0
13.09.2019 21:00:00 17,8 14,3 15,9 20,2 21,4 19,4 7 4 11 6 NE 1031,6 69 0 0,0
13.09.2019 20:00:00 21,2 14,0 19,6 21,9 21,7 19,4 9 5 18 10 NE 1031,0 65 14 0,0
13.09.2019 19:00:00 22,7 13,4 23,4 23,4 21,7 19,5 14 8 22 12 NNE 1031,0 67 60 0,0
13.09.2019 18:00:00 23,1 14,0 25,2 24,0 21,6 19,5 13 7 22 12 N 1030,9 54 6 0,0
13.09.2019 17:00:00 23,5 14,5 24,4 25,2 21,3 19,5 12 6 20 11 N 1031,0 67 5 0,0
13.09.2019 16:00:00 24,1 14,2 27,8 25,6 20,8 19,5 8 4 16 9 N 1031,0 61 20 0,0
13.09.2019 15:00:00 23,7 13,9 26,6 25,6 20,2 19,5 5 3 13 7 N 1031,2 72 10 0,0
13.09.2019 14:00:00 22,4 14,4 24,1 25,4 19,4 19,5 6 3 15 8 SSE 1031,8 61 33 0,0
13.09.2019 13:00:00 22,4 14,0 25,8 24,3 18,6 19,5 7 4 13 7 WNW 1032,0 69 28 0,0
13.09.2019 12:00:00 21,3 15,1 23,8 21,4 18,0 19,5 7 4 14 7 SSE 1032,4 59 13 0,0
13.09.2019 11:00:00 19,8 14,6 21,5 20,2 17,4 19,5 7 4 16 8 SSW 1032,6 46 34 0,0
13.09.2019 10:00:00 18,4 13,9 20,7 18,2 17,0 19,4 11 6 15 8 SSW 1032,3 45 60 0,0
13.09.2019 09:00:00 16,3 13,1 17,4 15,7 16,9 19,4 11 6 17 9 SSW 1031,9 63 60 0,0
13.09.2019 08:00:00 14,2 12,6 13,7 14,0 17,1 19,4 9 5 11 6 SSW 1032,0 71 27 0,0
13.09.2019 07:00:00 12,8 11,8 10,9 14,0 17,3 19,4 5 3 9 5 SSW 1031,7 47 0 0,0
13.09.2019 06:00:00 13,2 12,0 11,5 14,3 17,6 19,4 6 4 9 5 SW 1031,2 47 0 0,0
13.09.2019 05:00:00 13,0 12,0 11,5 14,6 17,9 19,4 6 4 11 6 SSW 1031,3 49 0 0,0
13.09.2019 04:00:00 12,5 11,9 11,2 14,9 18,3 19,4 7 4 9 5 SSW 1031,3 40 0 0,0
13.09.2019 03:00:00 12,7 12,0 11,0 15,3 18,6 19,4 3 2 6 3 SSW 1031,4 42 0 0,0
13.09.2019 02:00:00 13,3 12,8 11,5 15,8 19,0 19,4 3 2 4 2 S 1031,3 31 0 0,0
13.09.2019 01:00:00 14,2 13,3 12,5 16,4 19,4 19,4 2 1 4 2 S 1031,0 47 0 0,0
13.09.2019 00:00:00 14,8 13,7 12,6 17,1 19,8 19,4 3 2 9 5 SW 1031,0 59 0 0,0
12.09.2019 23:00:00 15,3 13,8 14,0 17,9 20,3 19,4 6 4 7 4 S 1031,1 58 0 0,0
12.09.2019 22:00:00 15,7 14,0 13,3 18,7 20,7 19,4 3 2 4 2 SSW 1030,8 55 0 0,0
12.09.2019 21:00:00 17,5 14,6 15,1 19,9 21,2 19,4 4 2 5 3 ESE 1030,3 65 0 0,0
12.09.2019 20:00:00 20,3 14,6 17,3 21,5 21,4 19,4 2 1 9 5 SSE 1029,8 69 0 0,0
12.09.2019 19:00:00 23,6 13,4 22,1 23,5 21,5 19,5 6 4 11 6 SW 1029,7 64 26 0,0
12.09.2019 18:00:00 23,9 12,7 24,1 24,7 21,3 19,5 8 4 20 11 SW 1029,4 57 3 0,0
12.09.2019 17:00:00 24,8 12,6 26,6 26,2 20,8 19,5 9 5 18 10 SW 1029,7 75 40 0,0
12.09.2019 16:00:00 24,5 12,2 26,9 26,1 20,1 19,5 14 8 21 12 SW 1030,0 53 33 0,0
12.09.2019 15:00:00 23,8 11,9 27,6 26,1 19,3 19,5 15 8 25 14 SSW 1030,4 62 40 0,0
12.09.2019 14:00:00 22,2 11,6 23,4 24,1 18,5 19,5 17 9 30 16 SSW 1030,6 63 47 0,0
12.09.2019 13:00:00 21,9 11,8 24,4 21,5 17,9 19,5 19 10 26 14 SW 1030,9 65 9 0,0
12.09.2019 12:00:00 19,6 10,0 20,3 19,3 17,6 19,5 16 9 27 15 SW 1031,4 62 0 0,0
12.09.2019 11:00:00 18,7 10,6 19,8 18,2 17,3 19,5 17 9 24 13 SW 1031,0 55 0 0,0
12.09.2019 10:00:00 17,8 10,2 18,1 17,0 17,1 19,5 13 7 22 12 WSW 1030,7 70 0 0,0
12.09.2019 09:00:00 17,1 10,6 17,2 16,1 17,1 19,5 16 9 23 12 SW 1029,7 61 0 0,0
12.09.2019 08:00:00 15,9 10,6 15,4 15,1 17,2 19,5 11 6 19 11 WSW 1029,3 54 0 0,0
12.09.2019 07:00:00 15,9 10,5 14,9 15,2 17,4 19,5 15 8 23 12 WSW 1028,6 60 0 0,0
12.09.2019 06:00:00 16,5 11,2 15,9 15,7 17,5 19,5 13 7 17 9 WSW 1028,3 58 0 0,0
12.09.2019 05:00:00 16,9 11,1 16,2 15,9 17,7 19,5 14 7 20 11 WSW 1028,2 58 0 0,0
12.09.2019 04:00:00 17,2 11,0 16,5 16,0 17,8 19,5 13 7 19 10 SW 1028,0 55 0 0,0
12.09.2019 03:00:00 17,0 11,1 16,2 16,2 18,0 19,5 9 5 16 9 SW 1027,9 56 0 0,0
12.09.2019 02:00:00 16,8 10,7 16,3 16,3 18,1 19,6 10 6 15 8 WSW 1027,7 51 0 0,0
12.09.2019 01:00:00 16,6 11,2 16,0 16,4 18,3 19,6 9 5 19 10 SW 1027,3 51 0 0,0
12.09.2019 00:00:00 17,9 9,8 16,8 16,7 18,6 19,6 16 9 28 15 SSW 1027,0 69 0 0,0
11.09.2019 23:00:00 16,6 11,2 15,9 17,1 18,8 19,6 6 3 10 5 SW 1026,9 52 0 0,0
11.09.2019 22:00:00 16,7 10,9 16,0 17,4 19,1 19,6 7 4 9 5 WSW 1026,8 53 0 0,0
11.09.2019 21:00:00 17,6 10,4 15,9 17,9 19,3 19,6 5 3 10 5 SSW 1025,9 59 0 0,0
11.09.2019 20:00:00 18,4 10,3 17,2 18,7 19,6 19,7 7 4 10 5 SSW 1025,3 59 0 0,0
11.09.2019 19:00:00 19,2 10,3 18,4 19,4 19,9 19,7 8 4 19 10 SW 1025,0 55 0 0,0
11.09.2019 18:00:00 19,9 9,4 19,4 20,4 20,1 19,7 11 6 18 10 SW 1024,8 62 0 0,0
11.09.2019 17:00:00 20,5 8,1 20,1 21,8 20,1 19,7 13 7 26 14 WSW 1024,4 59 0 0,0
11.09.2019 16:00:00 21,3 8,9 22,0 24,0 19,8 19,8 17 9 28 15 SW 1023,8 65 20 0,0
11.09.2019 15:00:00 22,2 7,5 24,8 25,9 19,0 19,8 14 8 24 13 W 1023,9 74 60 0,0
11.09.2019 14:00:00 21,2 6,8 24,8 25,3 18,0 19,8 8 5 18 10 W 1024,0 63 60 0,0
11.09.2019 13:00:00 19,9 10,1 23,7 23,7 16,9 19,8 7 4 13 7 WSW 1024,1 47 60 0,0
11.09.2019 12:00:00 18,2 10,6 21,7 20,9 15,9 19,8 9 5 14 8 SW 1024,6 42 60 0,0
11.09.2019 11:00:00 15,5 10,5 18,1 18,0 15,1 19,8 10 5 15 8 SW 1024,8 55 60 0,0
11.09.2019 10:00:00 13,2 9,4 15,2 15,0 14,7 19,8 5 3 8 4 SSW 1024,8 34 60 0,0
11.09.2019 09:00:00 11,8 9,2 11,0 12,1 14,7 19,9 0 0 4 2 N 1024,2 29 60 0,0
11.09.2019 08:00:00 7,1 6,2 7,4 10,4 14,9 19,9 2 1 4 2 SW 1024,0 17 19 0,0
11.09.2019 07:00:00 5,9 5,4 5,1 10,4 15,3 19,9 4 2 4 2 SSE 1023,6 23 0 0,0
11.09.2019 06:00:00 6,6 6,0 5,0 10,8 15,6 19,9 0 0 3 2 N 1022,6 24 0 0,0
11.09.2019 05:00:00 7,0 6,3 6,0 11,3 16,0 19,9 3 2 4 2 SSE 1022,0 27 0 0,0
11.09.2019 04:00:00 7,7 7,2 6,4 11,7 16,4 19,9 0 0 4 2 N 1022,0 29 0 0,0
11.09.2019 03:00:00 8,1 7,6 6,7 12,2 16,8 19,9 3 1 3 2 E 1021,7 24 0 0,0
11.09.2019 02:00:00 8,7 8,1 7,2 12,8 17,3 19,9 0 0 5 3 N 1021,7 26 0 0,0
11.09.2019 01:00:00 9,1 8,3 8,3 13,5 17,7 20,0 4 2 6 3 SSE 1021,4 31 0 0,0
11.09.2019 00:00:00 9,8 8,9 8,2 14,2 18,2 20,0 0 0 5 3 N 1021,0 35 0 0,0
10.09.2019 23:00:00 11,0 9,2 8,9 15,0 18,7 20,0 3 1 5 3 SE 1020,6 48 0 0,0
10.09.2019 22:00:00 12,3 9,0 10,2 16,0 19,3 20,0 5 3 6 4 ESE 1020,4 56 0 0,0
10.09.2019 21:00:00 13,9 9,7 11,4 17,2 19,8 20,1 4 2 6 3 NE 1019,7 64 0 0,0
10.09.2019 20:00:00 17,5 8,4 14,6 18,8 20,1 20,1 6 3 15 8 NE 1018,7 58 32 0,0
10.09.2019 19:00:00 19,8 7,0 19,5 20,8 20,3 20,1 11 6 19 10 NNE 1018,2 75 60 0,0
10.09.2019 18:00:00 20,5 6,9 22,0 22,4 20,2 20,1 13 7 19 11 N 1017,8 62 60 0,0
10.09.2019 17:00:00 20,8 7,4 23,1 23,5 19,8 20,2 11 6 22 12 NNE 1017,5 70 60 0,0
10.09.2019 16:00:00 21,0 7,6 24,6 23,9 19,3 20,2 11 6 26 14 N 1017,3 75 52 0,0
10.09.2019 15:00:00 20,0 7,0 23,3 23,3 18,8 20,2 11 6 21 12 ENE 1017,5 75 27 0,0
10.09.2019 14:00:00 19,8 7,5 22,1 24,2 17,9 20,3 13 7 24 13 NE 1017,3 53 58 0,0
10.09.2019 13:00:00 19,0 9,0 22,4 22,8 17,0 20,3 14 8 26 14 NNE 1017,1 54 60 0,0
10.09.2019 12:00:00 18,5 9,6 22,5 20,7 16,1 20,3 16 8 23 12 NE 1017,5 39 60 0,0
10.09.2019 11:00:00 16,3 9,8 20,3 18,0 15,4 20,3 9 5 16 8 NNE 1017,6 29 60 0,0
10.09.2019 10:00:00 13,4 8,2 16,5 15,1 15,0 20,3 8 4 13 7 NNE 1017,3 45 60 0,0
10.09.2019 09:00:00 11,1 8,0 11,2 12,8 14,9 20,4 7 4 8 5 NE 1017,1 30 58 0,0
10.09.2019 08:00:00 8,2 7,3 8,4 11,1 15,1 20,4 2 1 4 2 SE 1016,9 26 16 0,0
10.09.2019 07:00:00 7,3 6,9 6,2 10,9 15,4 20,4 3 2 5 3 W 1016,4 26 0 0,0
10.09.2019 06:00:00 7,7 7,1 7,0 11,3 15,7 20,4 5 3 5 3 E 1016,1 21 0 0,0
10.09.2019 05:00:00 7,7 7,2 7,1 11,7 16,0 20,4 4 2 5 3 SSW 1016,3 24 0 0,0

tt = temperature
td = dewpoint
tt 5cm = temperature 5cm
tt -5cm = temperature -5cm
tt -20cm = temperature -20cm
tt -100cm = temperature -100cm
ff = wind speed
fx = gusts
dd = wind direction
ppp = reduced air pressure
vv = visibility
sd = sunshine duration
rr = precipitation

Next stations